This is the latest recevied weather packets stored in our database for station/object K6GMW. If no packets are shown the sender has not sent any weather packets the latest 1 day(s).
| Time | Temp. | Humidity | Pressure | Rain* | Wind** | Luminosity | Snow |
|---|---|---|---|---|---|---|---|
| 1778026016 | 27.78° C | 70% | 1006.3 hPa | 0 mm | 1.79 m/s, 187° | 88 W/m² | - |
| 1778025714 | 27.78° C | 70% | 1006.3 hPa | 0 mm | 2.68 m/s, 203° | 78 W/m² | - |
| 1778025411 | 28.33° C | 69% | 1006.4 hPa | 0 mm | 3.13 m/s, 198° | 65 W/m² | - |
| 1778025109 | 28.33° C | 69% | 1006.2 hPa | 0 mm | 2.68 m/s, 169° | 93 W/m² | - |
| 1778024805 | 28.33° C | 69% | 1006.2 hPa | 0 mm | 2.68 m/s, 174° | 114 W/m² | - |
| 1778024502 | 28.33° C | 69% | 1006.1 hPa | 0 mm | 1.79 m/s, 186° | 77 W/m² | - |
| 1778024199 | 28.89° C | 68% | 1006.2 hPa | 0 mm | 2.24 m/s, 186° | 110 W/m² | - |
| 1778023897 | 28.89° C | 69% | 1006.4 hPa | 0 mm | 1.79 m/s, 163° | 130 W/m² | - |
| 1778023594 | 28.89° C | 67% | 1006.4 hPa | 0 mm | 1.34 m/s, 184° | 106 W/m² | - |
| 1778023292 | 28.89° C | 67% | 1006.3 hPa | 0 mm | 3.58 m/s, 241° | 172 W/m² | - |
| 1778022988 | 28.89° C | 66% | 1006.1 hPa | 0 mm | 3.58 m/s, 231° | 194 W/m² | - |
| 1778022687 | 28.89° C | 66% | 1006.1 hPa | 0 mm | 1.79 m/s, 197° | 180 W/m² | - |
| 1778022385 | 29.44° C | 65% | 1006 hPa | 0 mm | 2.24 m/s, 215° | 116 W/m² | - |
| 1778022080 | 30° C | 65% | 1006.1 hPa | 0 mm | 1.79 m/s, 225° | 319 W/m² | - |
| 1778021777 | 30° C | 65% | 1005.9 hPa | 0 mm | 1.79 m/s, 199° | 340 W/m² | - |
| 1778021474 | 30° C | 64% | 1006.1 hPa | 0 mm | 2.24 m/s, 210° | 404 W/m² | - |
| 1778021170 | 30° C | 65% | 1006.1 hPa | 0 mm | 1.79 m/s, 194° | 372 W/m² | - |
| 1778020868 | 29.44° C | 65% | 1005.9 hPa | 0 mm | 2.68 m/s, 213° | 411 W/m² | - |
| 1778020565 | 29.44° C | 65% | 1006.1 hPa | 0 mm | 2.68 m/s, 173° | 372 W/m² | - |
| 1778020261 | 28.89° C | 66% | 1006.1 hPa | 0 mm | 3.13 m/s, 229° | 352 W/m² | - |
| 1778019957 | 28.33° C | 67% | 1005.9 hPa | 0 mm | 3.58 m/s, 243° | 418 W/m² | - |
| 1778019654 | 28.33° C | 66% | 1005.8 hPa | 0 mm | 2.68 m/s, 200° | 174 W/m² | - |
| 1778019351 | 28.89° C | 66% | 1005.8 hPa | 0 mm | 2.24 m/s, 190° | 394 W/m² | - |
| 1778019047 | 28.33° C | 67% | 1005.9 hPa | 0 mm | 2.68 m/s, 217° | 490 W/m² | - |
| 1778018744 | 28.33° C | 66% | 1006.1 hPa | 0 mm | 4.47 m/s, 179° | 165 W/m² | - |
* Rain latest hour (hover to see other rain measurements)
** Current wind speed in m/s (hover to see current wind gust speed)